User: anonymous   Login
Location: Fort Wayne
(41.1310°N, 85.1290°W)
Time: 15:11:14
(UTC-05:00)
Language:

OAO 2 Rocket - Orbit

View from above orbital plane
View from above orbital plane
View from above satellite
View from above satellite

Ground track
Ground track

The orbit data is extracted from the following two-line orbital elements,

1  3598U 68110B   17059.87438280 +.00000079 +00000-0 +23192-4 0  9990
2  3598 034.9923 228.8343 0048618 068.6756 291.9118 14.54287047529797
Epoch (UTC): 28 February 2017 20:59:06
Eccentricity: 0.0048618
inclination: 34.9923°
perigee height: 677 km
apogee height: 746 km
right ascension of ascending node: 228.8343°
argument of perigee: 68.6756°
revolutions per day: 14.54287047
mean anomaly at epoch: 291.9118°
orbit number at epoch: 52979

The dashed part of the orbit path shows where the satellite is in the earth's shadow,  

DLR